STARLINK-30312, 57641

Orbit data source: Space-Track

STARLINK-30312, 57641 is a payload satellite owned by SpaceX/Seattle (US) in LEO that was launched on Thu, 17 Aug 2023 UTC via an FALCON 9 launch vehicle from the Air Force Eastern Test Range (AFETR). Payload-class satellites include a variety of spacecraft equipped with specific instruments for various scientific and technological missions. These include communications satellites like Starlink; space stations such as the ISS; scientific satellites like the Hubble; Earth observation satellites from companies like Planet Labs, Umbra, and HawkEye 360; GPS; miniature CubeSats for education and research; and military/defense satellites.

Loading next visibility...
Identifier
57641, 2023-122K
Orbit
LEO
Country
Flag of USUS
Related business
Manufacturer
SpaceX/Seattle
Mission
Operational Commercial Communications
Bus & Motor
STARLINK V2M, Unknown motor
Mass
730 kg wet, ~700 kg dry
Launch date (UTC)
2023-08-17 (2 years ago)
Launch vehicle
FALCON 9
Launch site
Air Force Eastern Test Range (AFETR)
Object type
Payload
Rocket body
Debris
Shape & HBR
Box + 2 Pan, 14.5 m
Radar Cross Section
33.884 m², Large (>1 m²)

Expand to show TLE details & history
Last TLE update: 6 hours ago

TLE from 6 hours ago
0 STARLINK-30312
1 57641U 23122K   25243.51280692  .00000807  00000-0  74795-4 0  9993
2 57641  43.0042  48.0577 0001368 268.4309  91.6377 15.02536807113576
Epoch: 2025-08-31T12:18Z
TLE epoch observation values (Epoch: 2025-08-31T12:18:26.517Z)
Latitude
-0.00001°
Longitude
-116.48448°
Altitude
558.883 km
Speed
7.584 km/s
True Right ascension
03h 12m 13s
True Declination
0° 00' 00"
Sunlit
Object was in daylight at epoch
Visualization orbit readout
Latitude
Unknown
Longitude
Unknown
Altitude
Unknown
Speed
Unknown
Apparent Right ascension
Unknown
Apparent Declination
Unknown
Sunlit
N/A
Visualization observer readout
Local Sidereal Time
10:25:06
Azimuth
Unknown
Elevation
Unknown
Doppler factor
Unknown
Orbital elements
Apogee altitude
561.95 km
Perigee altitude
560.051 km
Semi-major axis
6,939.137 km
Eccentricity
0.00014
Inclination
43.0042°
RAAN
48.0577°
Arg. of periapsis
268.4309°
True anomaly
91.65337°
Mean anomaly
91.6377°
Eccentric anomaly
91.64553°
Mean motion
3.75478 °/min
Orbital period
95.88 mins
BSTAR
0.000074795
Loading maneuver chart data...
Computing Atmospheric mass density...
Loading historical data...
Loading historical data...
Loading historical data...
Loading historical data...
Loading historical data...
Loading historical data...
Loading historical data...

Documentation

Showing up to 5 results
|